TimeCDT,TemperatureF,Dew PointF,Humidity,Sea Level PressureIn,VisibilityMPH,Wind Direction,Wind SpeedMPH,Gust SpeedMPH,PrecipitationIn,Events,Conditions,WindDirDegrees,DateUTC
12:53 AM,53.6,35.6,51,29.93,10.0,South,3.5,-,N/A,,Clear,180,2012-10-01 05:53:00
1:53 AM,50.0,37.0,61,29.90,10.0,South,5.8,-,N/A,,Clear,180,2012-10-01 06:53:00
2:53 AM,50.0,37.9,63,29.89,10.0,South,4.6,-,N/A,,Clear,180,2012-10-01 07:53:00
3:53 AM,52.0,37.9,59,29.87,10.0,SSW,4.6,-,N/A,,Clear,200,2012-10-01 08:53:00
4:53 AM,48.0,37.9,68,29.88,10.0,Calm,Calm,-,N/A,,Clear,0,2012-10-01 09:53:00
5:53 AM,46.0,37.9,73,29.88,10.0,South,5.8,-,N/A,,Clear,180,2012-10-01 10:53:00
6:53 AM,46.9,37.9,71,29.89,9.0,Calm,Calm,-,N/A,,Clear,0,2012-10-01 11:53:00
7:53 AM,51.1,39.9,66,29.90,10.0,West,8.1,-,N/A,,Clear,280,2012-10-01 12:53:00
8:53 AM,55.0,42.1,62,29.91,8.0,NNW,10.4,-,N/A,,Clear,330,2012-10-01 13:53:00
9:53 AM,62.1,44.1,52,29.90,10.0,North,16.1,-,N/A,,Clear,360,2012-10-01 14:53:00
10:53 AM,68.0,45.0,43,29.90,10.0,North,18.4,23.0,N/A,,Clear,350,2012-10-01 15:53:00
11:53 AM,71.1,43.0,36,29.89,10.0,North,16.1,-,N/A,,Clear,360,2012-10-01 16:53:00
12:53 PM,73.4,42.8,33,29.91,10.0,NNW,15.0,24.2,N/A,,Clear,340,2012-10-01 17:53:00
1:53 PM,73.4,39.2,29,29.89,10.0,NNW,20.7,27.6,N/A,,Clear,340,2012-10-01 18:53:00
2:53 PM,73.9,39.9,29,29.86,10.0,NW,24.2,31.1,N/A,,Clear,320,2012-10-01 19:53:00
3:53 PM,73.0,41.0,31,29.87,10.0,North,18.4,-,N/A,,Clear,350,2012-10-01 20:53:00
4:53 PM,71.6,42.8,35,29.89,10.0,North,20.7,-,N/A,,Clear,360,2012-10-01 21:53:00
5:53 PM,69.1,45.0,42,29.89,10.0,North,19.6,28.8,N/A,,Clear,360,2012-10-01 22:53:00
6:53 PM,64.0,46.0,52,29.91,10.0,North,12.7,-,N/A,,Clear,350,2012-10-01 23:53:00
7:53 PM,55.9,44.1,64,29.92,10.0,North,6.9,-,N/A,,Clear,350,2012-10-02 00:53:00
8:53 PM,52.0,42.1,69,29.92,10.0,NNW,6.9,-,N/A,,Clear,340,2012-10-02 01:53:00
9:53 PM,48.9,39.0,69,29.94,10.0,NW,8.1,-,N/A,,Clear,320,2012-10-02 02:53:00
10:53 PM,52.0,37.9,59,29.93,10.0,NNW,11.5,-,N/A,,Clear,330,2012-10-02 03:53:00
11:53 PM,48.0,37.0,66,29.94,10.0,NNW,9.2,-,N/A,,Clear,330,2012-10-02 04:53:00